Location: Home
(42.5358°N, 72.7383°W)
Time: 14:49:48
(UTC-05:00)

Vanguard 3 - Pass Details

Date: 01 December 2021
Orbit: 508 x 3260 km, 33.3° (Epoch: 20 January)

Event Time Altitude Azimuth Distance (km) Brightness Sun altitude
Rises 07:07:32 0° 264° (W) 7,134 11.5 0.2°
Reaches altitude 10° 07:12:45 10° 261° (W) 5,931 11.1 1.0°
Maximum altitude 07:29:27 56° 190° (S) 2,537 9.9 3.6°
Drops below altitude 10° 07:39:28 10° 115° (ESE) 3,711 12.7 5.1°
Sets 07:41:58 0° 111° (ESE) 4,393 12.7 5.4°
